Time,TemperatureF,DewpointF,PressureIn,WindDirection,WindDirectionDegrees,WindSpeedMPH,WindSpeedGustMPH,Humidity,HourlyPrecipIn,Conditions,Clouds,dailyrainin,SoftwareType,DateUTC
2013-03-28 00:00:00,36.5,24.3,30.26,West,259,4.0,5.0,61,0.00,,,0.00,Wunderground v.1.15,2013-03-28 04:00:00,
2013-03-28 00:10:00,36.2,24.4,30.26,West,268,4.0,4.0,62,0.00,,,0.00,Wunderground v.1.15,2013-03-28 04:10:00,
2013-03-28 00:15:00,36.2,24.4,30.26,WNW,297,4.0,8.0,62,0.00,,,0.00,Wunderground v.1.15,2013-03-28 04:15:00,
2013-03-28 00:25:00,36.1,24.3,30.26,WSW,252,5.0,5.0,62,0.00,,,0.00,Wunderground v.1.15,2013-03-28 04:25:00,
2013-03-28 00:30:00,36.1,24.7,30.26,NW,309,5.0,5.0,63,0.00,,,0.00,Wunderground v.1.15,2013-03-28 04:30:00,
2013-03-28 00:40:00,35.9,24.5,30.26,NW,317,5.0,5.0,63,0.00,,,0.00,Wunderground v.1.15,2013-03-28 04:40:00,
2013-03-28 00:45:00,35.8,24.8,30.26,WNW,297,5.0,6.0,64,0.00,,,0.00,Wunderground v.1.15,2013-03-28 04:45:00,
2013-03-28 00:55:00,35.6,25.0,30.26,West,277,4.0,6.0,65,0.00,,,0.00,Wunderground v.1.15,2013-03-28 04:55:00,
2013-03-28 01:00:00,35.7,24.7,30.26,WNW,290,4.0,4.0,64,0.00,,,0.00,Wunderground v.1.15,2013-03-28 05:00:00,
2013-03-28 01:10:00,35.7,24.7,30.27,West,274,4.0,4.0,64,0.00,,,0.00,Wunderground v.1.15,2013-03-28 05:10:00,
2013-03-28 01:15:00,35.7,24.7,30.27,NW,315,4.0,4.0,64,0.00,,,0.00,Wunderground v.1.15,2013-03-28 05:15:00,
2013-03-28 01:25:00,35.7,24.7,30.27,WNW,288,4.0,4.0,64,0.00,,,0.00,Wunderground v.1.15,2013-03-28 05:25:00,
2013-03-28 01:30:00,35.6,24.6,30.27,NW,308,4.0,5.0,64,0.00,,,0.00,Wunderground v.1.15,2013-03-28 05:30:00,
2013-03-28 01:40:00,35.7,24.7,30.27,WNW,295,4.0,4.0,64,0.00,,,0.00,Wunderground v.1.15,2013-03-28 05:40:00,
2013-03-28 01:45:00,35.7,24.7,30.27,WNW,283,4.0,4.0,64,0.00,,,0.00,Wunderground v.1.15,2013-03-28 05:45:00,
2013-03-28 01:55:00,35.7,24.3,30.27,West,276,4.0,4.0,63,0.00,,,0.00,Wunderground v.1.15,2013-03-28 05:55:00,
2013-03-28 02:00:00,35.7,24.7,30.27,NW,304,4.0,5.0,64,0.00,,,0.00,Wunderground v.1.15,2013-03-28 06:00:00,
2013-03-28 02:10:00,35.6,24.2,30.27,WNW,296,4.0,6.0,63,0.00,,,0.00,Wunderground v.1.15,2013-03-28 06:10:00,
2013-03-28 02:15:00,35.6,24.2,30.27,WNW,294,5.0,6.0,63,0.00,,,0.00,Wunderground v.1.15,2013-03-28 06:15:00,
2013-03-28 02:25:00,35.4,24.0,30.27,WNW,300,4.0,6.0,63,0.00,,,0.00,Wunderground v.1.15,2013-03-28 06:25:00,
2013-03-28 02:30:00,35.3,24.0,30.27,West,259,4.0,4.0,63,0.00,,,0.00,Wunderground v.1.15,2013-03-28 06:30:00,
2013-03-28 02:40:00,35.0,24.0,30.27,WNW,291,3.0,3.0,64,0.00,,,0.00,Wunderground v.1.15,2013-03-28 06:40:00,
2013-03-28 02:45:00,34.9,23.9,30.27,WNW,295,3.0,3.0,64,0.00,,,0.00,Wunderground v.1.15,2013-03-28 06:45:00,
2013-03-28 02:55:00,34.5,24.3,30.27,WSW,238,3.0,3.0,66,0.00,,,0.00,Wunderground v.1.15,2013-03-28 06:55:00,
2013-03-28 03:00:00,34.3,24.1,30.27,West,261,2.0,2.0,66,0.00,,,0.00,Wunderground v.1.15,2013-03-28 07:00:00,
2013-03-28 03:10:00,34.0,23.8,30.27,NW,304,3.0,3.0,66,0.00,,,0.00,Wunderground v.1.15,2013-03-28 07:10:00,
2013-03-28 03:15:00,34.0,23.8,30.27,WNW,288,3.0,4.0,66,0.00,,,0.00,Wunderground v.1.15,2013-03-28 07:15:00,
2013-03-28 03:25:00,33.7,23.9,30.27,West,277,3.0,3.0,67,0.00,,,0.00,Wunderground v.1.15,2013-03-28 07:25:00,
2013-03-28 03:30:00,33.6,23.8,30.27,WNW,288,3.0,3.0,67,0.00,,,0.00,Wunderground v.1.15,2013-03-28 07:30:00,
2013-03-28 03:40:00,33.3,23.9,30.27,West,269,3.0,3.0,68,0.00,,,0.00,Wunderground v.1.15,2013-03-28 07:40:00,
2013-03-28 03:50:00,33.0,23.6,30.27,West,274,2.0,2.0,68,0.00,,,0.00,Wunderground v.1.15,2013-03-28 07:50:00,
2013-03-28 04:00:00,32.7,23.3,30.27,West,276,2.0,2.0,68,0.00,,,0.00,Wunderground v.1.15,2013-03-28 08:00:00,
2013-03-28 04:10:00,32.6,23.2,30.27,West,271,2.0,2.0,68,0.00,,,0.00,Wunderground v.1.15,2013-03-28 08:10:00,
2013-03-28 04:20:00,32.4,23.4,30.27,NW,308,2.0,2.0,69,0.00,,,0.00,Wunderground v.1.15,2013-03-28 08:20:00,
2013-03-28 04:30:00,32.3,23.3,30.27,West,274,2.0,2.0,69,0.00,,,0.00,Wunderground v.1.15,2013-03-28 08:30:00,
2013-03-28 04:35:00,32.4,23.4,30.27,WNW,290,2.0,2.0,69,0.00,,,0.00,Wunderground v.1.15,2013-03-28 08:35:00,
2013-03-28 04:45:00,32.3,23.6,30.27,WNW,287,2.0,3.0,70,0.00,,,0.00,Wunderground v.1.15,2013-03-28 08:45:00,
2013-03-28 04:55:00,32.2,23.5,30.27,WNW,288,2.0,3.0,70,0.00,,,0.00,Wunderground v.1.15,2013-03-28 08:55:00,
2013-03-28 05:00:00,32.1,23.4,30.27,West,271,2.0,2.0,70,0.00,,,0.00,Wunderground v.1.15,2013-03-28 09:00:00,
2013-03-28 05:10:00,32.0,23.3,30.27,West,274,2.0,2.0,70,0.00,,,0.00,Wunderground v.1.15,2013-03-28 09:10:00,
2013-03-28 05:20:00,31.7,23.0,30.27,WSW,252,2.0,2.0,70,0.00,,,0.00,Wunderground v.1.15,2013-03-28 09:20:00,
2013-03-28 05:30:00,31.3,23.3,30.27,WSW,243,2.0,3.0,72,0.00,,,0.00,Wunderground v.1.15,2013-03-28 09:30:00,
2013-03-28 05:35:00,31.0,23.0,30.27,West,275,2.0,3.0,72,0.00,,,0.00,Wunderground v.1.15,2013-03-28 09:35:00,
2013-03-28 05:45:00,30.7,23.1,30.27,WSW,243,2.0,3.0,73,0.00,,,0.00,Wunderground v.1.15,2013-03-28 09:45:00,
2013-03-28 05:50:00,30.6,23.0,30.27,WNW,293,2.0,3.0,73,0.00,,,0.00,Wunderground v.1.15,2013-03-28 09:50:00,
2013-03-28 06:00:00,30.4,23.1,30.27,West,264,2.0,3.0,74,0.00,,,0.00,Wunderground v.1.15,2013-03-28 10:00:00,
2013-03-28 06:05:00,30.3,23.0,30.27,WSW,256,2.0,3.0,74,0.00,,,0.00,Wunderground v.1.15,2013-03-28 10:05:00,
2013-03-28 06:15:00,30.2,22.9,30.27,WSW,257,2.0,2.0,74,0.00,,,0.00,Wunderground v.1.15,2013-03-28 10:15:00,
2013-03-28 06:20:00,30.2,22.9,30.27,West,266,2.0,2.0,74,0.00,,,0.00,Wunderground v.1.15,2013-03-28 10:20:00,
2013-03-28 06:30:00,30.3,23.0,30.27,WNW,293,2.0,2.0,74,0.00,,,0.00,Wunderground v.1.15,2013-03-28 10:30:00,
2013-03-28 06:35:00,30.3,23.0,30.27,West,273,2.0,2.0,74,0.00,,,0.00,Wunderground v.1.15,2013-03-28 10:35:00,
2013-03-28 06:45:00,30.3,23.3,30.27,West,273,2.0,2.0,75,0.00,,,0.00,Wunderground v.1.15,2013-03-28 10:45:00,
2013-03-28 06:50:00,30.3,23.3,30.28,West,281,1.0,2.0,75,0.00,,,0.00,Wunderground v.1.15,2013-03-28 10:50:00,
2013-03-28 07:00:00,30.3,23.3,30.28,West,273,1.0,1.0,75,0.00,,,0.00,Wunderground v.1.15,2013-03-28 11:00:00,
2013-03-28 07:10:00,30.4,23.4,30.28,West,264,1.0,4.0,75,0.00,,,0.00,Wunderground v.1.15,2013-03-28 11:10:00,
2013-03-28 07:20:00,30.3,23.3,30.29,West,275,2.0,2.0,75,0.00,,,0.00,Wunderground v.1.15,2013-03-28 11:20:00,
2013-03-28 07:25:00,30.3,23.3,30.29,West,281,1.0,2.0,75,0.00,,,0.00,Wunderground v.1.15,2013-03-28 11:25:00,
2013-03-28 07:35:00,30.4,23.4,30.29,WNW,295,2.0,4.0,75,0.00,,,0.00,Wunderground v.1.15,2013-03-28 11:35:00,
2013-03-28 07:45:00,30.4,23.7,30.30,West,262,2.0,3.0,76,0.00,,,0.00,Wunderground v.1.15,2013-03-28 11:45:00,
2013-03-28 07:50:00,30.4,23.7,30.30,WNW,282,2.0,2.0,76,0.00,,,0.00,Wunderground v.1.15,2013-03-28 11:50:00,
2013-03-28 08:00:00,31.0,24.3,30.30,WNW,293,3.0,3.0,76,0.00,,,0.00,Wunderground v.1.15,2013-03-28 12:00:00,
2013-03-28 08:10:00,31.7,24.7,30.30,NW,304,2.0,2.0,75,0.00,,,0.00,Wunderground v.1.15,2013-03-28 12:10:00,
2013-03-28 08:20:00,32.1,24.7,30.30,WNW,285,3.0,5.0,74,0.00,,,0.00,Wunderground v.1.15,2013-03-28 12:20:00,
2013-03-28 08:25:00,32.1,24.7,30.30,WNW,283,3.0,5.0,74,0.00,,,0.00,Wunderground v.1.15,2013-03-28 12:25:00,
2013-03-28 08:35:00,32.2,24.8,30.31,WNW,297,3.0,3.0,74,0.00,,,0.00,Wunderground v.1.15,2013-03-28 12:35:00,
2013-03-28 08:40:00,32.3,24.9,30.31,WNW,296,3.0,3.0,74,0.00,,,0.00,Wunderground v.1.15,2013-03-28 12:40:00,
2013-03-28 08:50:00,32.6,25.2,30.31,West,271,2.0,4.0,74,0.00,,,0.00,Wunderground v.1.15,2013-03-28 12:50:00,
2013-03-28 08:55:00,32.8,25.4,30.31,WNW,288,3.0,6.0,74,0.00,,,0.00,Wunderground v.1.15,2013-03-28 12:55:00,
2013-03-28 09:00:00,32.9,25.5,30.31,WNW,300,3.0,3.0,74,0.00,,,0.00,Wunderground v.1.15,2013-03-28 13:00:00,
2013-03-28 09:10:00,33.2,25.8,30.31,WNW,295,3.0,4.0,74,0.00,,,0.00,Wunderground v.1.15,2013-03-28 13:10:00,
2013-03-28 09:20:00,33.6,26.2,30.31,WSW,258,3.0,3.0,74,0.00,,,0.00,Wunderground v.1.15,2013-03-28 13:20:00,
2013-03-28 09:25:00,33.8,26.1,30.31,WNW,290,2.0,4.0,73,0.00,,,0.00,Wunderground v.1.15,2013-03-28 13:25:00,
2013-03-28 09:35:00,34.1,26.3,30.32,WSW,256,4.0,5.0,73,0.00,,,0.00,Wunderground v.1.15,2013-03-28 13:35:00,
2013-03-28 09:40:00,34.4,26.6,30.32,West,262,4.0,4.0,73,0.00,,,0.00,Wunderground v.1.15,2013-03-28 13:40:00,
2013-03-28 09:50:00,35.0,26.9,30.32,NW,311,3.0,3.0,72,0.00,,,0.00,Wunderground v.1.15,2013-03-28 13:50:00,
2013-03-28 09:55:00,35.3,26.8,30.32,West,281,3.0,4.0,71,0.00,,,0.00,Wunderground v.1.15,2013-03-28 13:55:00,
2013-03-28 10:00:00,35.5,27.0,30.32,WSW,253,4.0,4.0,71,0.00,,,0.00,Wunderground v.1.15,2013-03-28 14:00:00,
2013-03-28 10:10:00,35.9,26.7,30.32,NW,304,4.0,4.0,69,0.00,,,0.00,Wunderground v.1.15,2013-03-28 14:10:00,
2013-03-28 10:15:00,36.3,26.7,30.32,WNW,290,5.0,6.0,68,0.00,,,0.00,Wunderground v.1.15,2013-03-28 14:15:00,
2013-03-28 10:25:00,37.1,27.2,30.32,West,281,5.0,5.0,67,0.00,,,0.00,Wunderground v.1.15,2013-03-28 14:25:00,
2013-03-28 10:30:00,37.6,27.3,30.32,WSW,254,4.0,6.0,66,0.00,,,0.00,Wunderground v.1.15,2013-03-28 14:30:00,
2013-03-28 10:40:00,38.4,26.9,30.32,WNW,302,5.0,6.0,63,0.00,,,0.00,Wunderground v.1.15,2013-03-28 14:40:00,
2013-03-28 10:45:00,38.5,26.6,30.32,WNW,295,5.0,7.0,62,0.00,,,0.00,Wunderground v.1.15,2013-03-28 14:45:00,
2013-03-28 10:55:00,39.3,27.4,30.32,NW,304,5.0,9.0,62,0.00,,,0.00,Wunderground v.1.15,2013-03-28 14:55:00,
2013-03-28 11:00:00,39.8,27.4,30.32,West,267,4.0,4.0,61,0.00,,,0.00,Wunderground v.1.15,2013-03-28 15:00:00,
2013-03-28 11:10:00,41.0,28.6,30.32,NW,309,4.0,5.0,61,0.00,,,0.00,Wunderground v.1.15,2013-03-28 15:10:00,
2013-03-28 11:15:00,41.5,27.8,30.32,West,268,4.0,5.0,58,0.00,,,0.00,Wunderground v.1.15,2013-03-28 15:15:00,
2013-03-28 11:25:00,41.6,26.6,30.32,NNE,15,5.0,6.0,55,0.00,,,0.00,Wunderground v.1.15,2013-03-28 15:25:00,
2013-03-28 11:30:00,41.6,27.1,30.32,NW,320,6.0,6.0,56,0.00,,,0.00,Wunderground v.1.15,2013-03-28 15:30:00,
2013-03-28 11:40:00,42.4,28.2,30.32,West,261,5.0,5.0,57,0.00,,,0.00,Wunderground v.1.15,2013-03-28 15:40:00,
2013-03-28 11:45:00,42.7,28.1,30.32,WNW,295,5.0,5.0,56,0.00,,,0.00,Wunderground v.1.15,2013-03-28 15:45:00,
2013-03-28 11:55:00,43.9,28.8,30.32,WNW,295,4.0,5.0,55,0.00,,,0.00,Wunderground v.1.15,2013-03-28 15:55:00,
2013-03-28 12:00:00,44.5,28.4,30.32,West,272,5.0,6.0,53,0.00,,,0.00,Wunderground v.1.15,2013-03-28 16:00:00,
2013-03-28 12:10:00,44.9,28.3,30.32,West,276,4.0,4.0,52,0.00,,,0.00,Wunderground v.1.15,2013-03-28 16:10:00,
2013-03-28 12:15:00,45.3,28.2,30.32,WNW,284,4.0,4.0,51,0.00,,,0.00,Wunderground v.1.15,2013-03-28 16:15:00,
2013-03-28 12:25:00,45.7,27.6,30.31,WSW,239,4.0,7.0,49,0.00,,,0.00,Wunderground v.1.15,2013-03-28 16:25:00,
2013-03-28 12:30:00,45.6,28.5,30.32,NW,322,6.0,8.0,51,0.00,,,0.00,Wunderground v.1.15,2013-03-28 16:30:00,
2013-03-28 12:40:00,46.8,28.6,30.31,SW,233,4.0,4.0,49,0.00,,,0.00,Wunderground v.1.15,2013-03-28 16:40:00,
2013-03-28 12:45:00,47.0,27.8,30.31,West,269,4.0,4.0,47,0.00,,,0.00,Wunderground v.1.15,2013-03-28 16:45:00,
2013-03-28 12:55:00,47.3,26.5,30.31,NE,37,5.0,7.0,44,0.00,,,0.00,Wunderground v.1.15,2013-03-28 16:55:00,
2013-03-28 13:00:00,47.5,27.7,30.30,NW,317,5.0,5.0,46,0.00,,,0.00,Wunderground v.1.15,2013-03-28 17:00:00,
2013-03-28 13:10:00,47.7,26.8,30.30,WNW,297,4.0,4.0,44,0.00,,,0.00,Wunderground v.1.15,2013-03-28 17:10:00,
2013-03-28 13:15:00,48.2,27.3,30.30,WSW,256,4.0,4.0,44,0.00,,,0.00,Wunderground v.1.15,2013-03-28 17:15:00,
2013-03-28 13:25:00,48.0,27.1,30.30,NNW,328,4.0,5.0,44,0.00,,,0.00,Wunderground v.1.15,2013-03-28 17:25:00,
2013-03-28 13:30:00,49.2,27.1,30.30,NW,306,4.0,4.0,42,0.00,,,0.00,Wunderground v.1.15,2013-03-28 17:30:00,
2013-03-28 13:40:00,49.1,27.0,30.30,NW,311,4.0,4.0,42,0.00,,,0.00,Wunderground v.1.15,2013-03-28 17:40:00,
2013-03-28 13:45:00,49.2,26.5,30.30,West,262,5.0,5.0,41,0.00,,,0.00,Wunderground v.1.15,2013-03-28 17:45:00,
2013-03-28 13:55:00,49.2,25.3,30.30,NW,307,4.0,7.0,39,0.00,,,0.00,Wunderground v.1.15,2013-03-28 17:55:00,
2013-03-28 14:00:00,48.8,26.1,30.30,NW,316,6.0,6.0,41,0.00,,,0.00,Wunderground v.1.15,2013-03-28 18:00:00,
2013-03-28 14:10:00,48.7,25.4,30.30,WNW,302,5.0,5.0,40,0.00,,,0.00,Wunderground v.1.15,2013-03-28 18:10:00,
2013-03-28 14:15:00,48.8,25.5,30.29,NW,311,5.0,5.0,40,0.00,,,0.00,Wunderground v.1.15,2013-03-28 18:15:00,
2013-03-28 14:25:00,49.1,25.8,30.30,NNW,330,4.0,4.0,40,0.00,,,0.00,Wunderground v.1.15,2013-03-28 18:25:00,
2013-03-28 14:30:00,49.0,25.1,30.29,West,280,4.0,4.0,39,0.00,,,0.00,Wunderground v.1.15,2013-03-28 18:30:00,
2013-03-28 14:40:00,49.6,25.6,30.29,West,274,3.0,3.0,39,0.00,,,0.00,Wunderground v.1.15,2013-03-28 18:40:00,
2013-03-28 14:50:00,49.7,25.1,30.29,WNW,291,2.0,3.0,38,0.00,,,0.00,Wunderground v.1.15,2013-03-28 18:50:00,
2013-03-28 15:00:00,49.4,24.8,30.29,NNW,341,6.0,6.0,38,0.00,,,0.00,Wunderground v.1.15,2013-03-28 19:00:00,
2013-03-28 15:05:00,49.4,24.8,30.29,NNW,330,5.0,6.0,38,0.00,,,0.00,Wunderground v.1.15,2013-03-28 19:05:00,
2013-03-28 15:15:00,49.3,25.4,30.29,NW,318,4.0,4.0,39,0.00,,,0.00,Wunderground v.1.15,2013-03-28 19:15:00,
2013-03-28 15:20:00,49.4,25.4,30.29,NW,306,4.0,4.0,39,0.00,,,0.00,Wunderground v.1.15,2013-03-28 19:20:00,
2013-03-28 15:30:00,49.4,24.8,30.28,NW,307,3.0,7.0,38,0.00,,,0.00,Wunderground v.1.15,2013-03-28 19:30:00,
2013-03-28 15:35:00,49.3,24.7,30.28,NNW,329,4.0,7.0,38,0.00,,,0.00,Wunderground v.1.15,2013-03-28 19:35:00,
2013-03-28 15:45:00,49.8,25.8,30.28,SW,225,3.0,3.0,39,0.00,,,0.00,Wunderground v.1.15,2013-03-28 19:45:00,
2013-03-28 15:50:00,49.4,27.2,30.28,East,91,2.0,4.0,42,0.00,,,0.00,Wunderground v.1.15,2013-03-28 19:50:00,
2013-03-28 16:00:00,48.4,26.9,30.28,ENE,67,2.0,2.0,43,0.00,,,0.00,Wunderground v.1.15,2013-03-28 20:00:00,
2013-03-28 16:05:00,48.6,29.3,30.28,East,82,1.0,3.0,47,0.00,,,0.00,Wunderground v.1.15,2013-03-28 20:05:00,
2013-03-28 16:15:00,47.6,29.9,30.28,East,84,2.0,2.0,50,0.00,,,0.00,Wunderground v.1.15,2013-03-28 20:15:00,
2013-03-28 16:20:00,47.7,30.0,30.28,SSW,208,1.0,1.0,50,0.00,,,0.00,Wunderground v.1.15,2013-03-28 20:20:00,
2013-03-28 16:30:00,47.4,30.6,30.27,ESE,115,1.0,1.0,52,0.00,,,0.00,Wunderground v.1.15,2013-03-28 20:30:00,
2013-03-28 16:35:00,47.5,30.3,30.28,East,86,1.0,3.0,51,0.00,,,0.00,Wunderground v.1.15,2013-03-28 20:35:00,
2013-03-28 16:45:00,47.2,30.0,30.28,North,352,2.0,2.0,51,0.00,,,0.00,Wunderground v.1.15,2013-03-28 20:45:00,
2013-03-28 16:50:00,47.5,30.3,30.27,ENE,78,1.0,4.0,51,0.00,,,0.00,Wunderground v.1.15,2013-03-28 20:50:00,
2013-03-28 17:00:00,48.1,30.3,30.27,ENE,75,2.0,2.0,50,0.00,,,0.00,Wunderground v.1.15,2013-03-28 21:00:00,
2013-03-28 17:05:00,48.0,30.2,30.27,South,176,2.0,2.0,50,0.00,,,0.00,Wunderground v.1.15,2013-03-28 21:05:00,
2013-03-28 17:15:00,48.1,30.8,30.27,SE,127,2.0,2.0,51,0.00,,,0.00,Wunderground v.1.15,2013-03-28 21:15:00,
2013-03-28 17:20:00,48.5,30.7,30.27,West,264,2.0,2.0,50,0.00,,,0.00,Wunderground v.1.15,2013-03-28 21:20:00,
2013-03-28 17:30:00,48.5,30.7,30.27,SW,223,1.0,2.0,50,0.00,,,0.00,Wunderground v.1.15,2013-03-28 21:30:00,
2013-03-28 17:35:00,48.7,30.9,30.27,SW,222,1.0,2.0,50,0.00,,,0.00,Wunderground v.1.15,2013-03-28 21:35:00,
2013-03-28 17:45:00,49.2,30.8,30.27,SW,214,2.0,3.0,49,0.00,,,0.00,Wunderground v.1.15,2013-03-28 21:45:00,
2013-03-28 17:50:00,48.7,31.4,30.27,SW,220,1.0,1.0,51,0.00,,,0.00,Wunderground v.1.15,2013-03-28 21:50:00,
2013-03-28 18:00:00,47.2,31.4,30.27,West,260,2.0,2.0,54,0.00,,,0.00,Wunderground v.1.15,2013-03-28 22:00:00,
2013-03-28 18:10:00,47.1,31.7,30.27,SW,220,2.0,2.0,55,0.00,,,0.00,Wunderground v.1.15,2013-03-28 22:10:00,
2013-03-28 18:20:00,47.3,31.5,30.27,South,184,0.0,0.0,54,0.00,,,0.00,Wunderground v.1.15,2013-03-28 22:20:00,
2013-03-28 18:25:00,47.4,30.6,30.27,East,86,0.0,1.0,52,0.00,,,0.00,Wunderground v.1.15,2013-03-28 22:25:00,
2013-03-28 18:35:00,47.2,30.5,30.27,West,275,0.0,1.0,52,0.00,,,0.00,Wunderground v.1.15,2013-03-28 22:35:00,
2013-03-28 18:40:00,46.8,30.1,30.27,SW,219,1.0,1.0,52,0.00,,,0.00,Wunderground v.1.15,2013-03-28 22:40:00,
2013-03-28 18:50:00,46.4,30.6,30.28,SE,134,0.0,0.0,54,0.00,,,0.00,Wunderground v.1.15,2013-03-28 22:50:00,
2013-03-28 18:55:00,46.1,29.9,30.28,SW,224,1.0,2.0,53,0.00,,,0.00,Wunderground v.1.15,2013-03-28 22:55:00,
2013-03-28 19:00:00,45.7,30.4,30.28,SW,216,1.0,1.0,55,0.00,,,0.00,Wunderground v.1.15,2013-03-28 23:00:00,
2013-03-28 19:10:00,45.3,30.5,30.28,ESE,114,0.0,1.0,56,0.00,,,0.00,Wunderground v.1.15,2013-03-28 23:10:00,
2013-03-28 19:20:00,44.8,30.5,30.28,SE,136,0.0,1.0,57,0.00,,,0.00,Wunderground v.1.15,2013-03-28 23:20:00,
2013-03-28 19:25:00,44.5,30.6,30.28,ESE,123,0.0,1.0,58,0.00,,,0.00,Wunderground v.1.15,2013-03-28 23:25:00,
2013-03-28 19:35:00,44.2,30.8,30.28,ESE,116,0.0,0.0,59,0.00,,,0.00,Wunderground v.1.15,2013-03-28 23:35:00,
2013-03-28 19:40:00,44.0,31.0,30.28,SE,130,0.0,0.0,60,0.00,,,0.00,Wunderground v.1.15,2013-03-28 23:40:00,
2013-03-28 19:50:00,43.7,31.1,30.28,SW,235,0.0,0.0,61,0.00,,,0.00,Wunderground v.1.15,2013-03-28 23:50:00,
2013-03-28 19:55:00,43.7,31.1,30.28,SW,226,0.0,0.0,61,0.00,,,0.00,Wunderground v.1.15,2013-03-28 23:55:00,
2013-03-28 20:00:00,43.7,31.1,30.28,SW,228,0.0,0.0,61,0.00,,,0.00,Wunderground v.1.15,2013-03-29 00:00:00,
2013-03-28 20:10:00,43.5,31.3,30.28,SW,230,0.0,0.0,62,0.00,,,0.00,Wunderground v.1.15,2013-03-29 00:10:00,
2013-03-28 20:15:00,43.4,31.2,30.28,SW,230,0.0,0.0,62,0.00,,,0.00,Wunderground v.1.15,2013-03-29 00:15:00,
2013-03-28 20:25:00,43.1,31.4,30.29,SW,230,0.0,0.0,63,0.00,,,0.00,Wunderground v.1.15,2013-03-29 00:25:00,
2013-03-28 20:30:00,43.0,31.6,30.29,SW,230,0.0,0.0,64,0.00,,,0.00,Wunderground v.1.15,2013-03-29 00:30:00,
2013-03-28 20:40:00,43.1,31.7,30.29,SSW,210,0.0,0.0,64,0.00,,,0.00,Wunderground v.1.15,2013-03-29 00:40:00,
2013-03-28 20:50:00,43.1,32.1,30.29,SSW,210,0.0,0.0,65,0.00,,,0.00,Wunderground v.1.15,2013-03-29 00:50:00,
2013-03-28 20:55:00,43.3,31.9,30.29,SSW,210,0.0,0.0,64,0.00,,,0.00,Wunderground v.1.15,2013-03-29 00:55:00,
2013-03-28 21:00:00,43.3,32.3,30.29,SSW,210,0.0,0.0,65,0.00,,,0.00,Wunderground v.1.15,2013-03-29 01:00:00,
2013-03-28 21:10:00,42.9,31.9,30.29,SSW,211,0.0,0.0,65,0.00,,,0.00,Wunderground v.1.15,2013-03-29 01:10:00,
2013-03-28 21:15:00,42.8,31.8,30.29,SSW,211,0.0,0.0,65,0.00,,,0.00,Wunderground v.1.15,2013-03-29 01:15:00,
2013-03-28 21:25:00,42.4,31.8,30.29,SSW,211,0.0,0.0,66,0.00,,,0.00,Wunderground v.1.15,2013-03-29 01:25:00,
2013-03-28 21:35:00,42.4,31.8,30.29,SSW,211,0.0,0.0,66,0.00,,,0.00,Wunderground v.1.15,2013-03-29 01:35:00,
2013-03-28 21:40:00,42.5,31.9,30.29,SSW,211,0.0,1.0,66,0.00,,,0.00,Wunderground v.1.15,2013-03-29 01:40:00,
2013-03-28 21:50:00,42.7,31.4,30.30,SSW,212,0.0,0.0,64,0.00,,,0.00,Wunderground v.1.15,2013-03-29 01:50:00,
2013-03-28 21:55:00,42.7,31.4,30.30,SSW,211,0.0,0.0,64,0.00,,,0.00,Wunderground v.1.15,2013-03-29 01:55:00,
2013-03-28 22:00:00,42.7,31.4,30.30,SSW,211,0.0,0.0,64,0.00,,,0.00,Wunderground v.1.15,2013-03-29 02:00:00,
2013-03-28 22:05:00,42.7,31.7,30.30,SSW,212,0.0,0.0,65,0.00,,,0.00,Wunderground v.1.15,2013-03-29 02:05:00,
2013-03-28 22:15:00,42.6,31.7,30.30,SSW,211,0.0,0.0,65,0.00,,,0.00,Wunderground v.1.15,2013-03-29 02:15:00,
2013-03-28 22:20:00,42.6,31.7,30.30,SSW,212,0.0,0.0,65,0.00,,,0.00,Wunderground v.1.15,2013-03-29 02:20:00,
2013-03-28 22:30:00,42.8,31.8,30.30,SSW,211,0.0,0.0,65,0.00,,,0.00,Wunderground v.1.15,2013-03-29 02:30:00,
2013-03-28 22:35:00,42.8,31.8,30.30,SSW,211,0.0,0.0,65,0.00,,,0.00,Wunderground v.1.15,2013-03-29 02:35:00,
2013-03-28 22:45:00,42.7,31.0,30.30,SSW,211,0.0,0.0,63,0.00,,,0.00,Wunderground v.1.15,2013-03-29 02:45:00,
2013-03-28 22:50:00,43.0,31.3,30.30,SSW,212,0.0,0.0,63,0.00,,,0.00,Wunderground v.1.15,2013-03-29 02:50:00,
2013-03-28 23:00:00,42.8,31.5,30.30,SW,224,0.0,0.0,64,0.00,,,0.00,Wunderground v.1.15,2013-03-29 03:00:00,
2013-03-28 23:10:00,43.4,30.0,30.30,SW,224,0.0,0.0,59,0.00,,,0.00,Wunderground v.1.15,2013-03-29 03:10:00,
2013-03-28 23:15:00,43.5,30.1,30.30,SW,224,0.0,1.0,59,0.00,,,0.00,Wunderground v.1.15,2013-03-29 03:15:00,
2013-03-28 23:25:00,43.6,29.4,30.30,WSW,250,0.0,0.0,57,0.00,,,0.00,Wunderground v.1.15,2013-03-29 03:25:00,
2013-03-28 23:35:00,44.0,29.3,30.30,West,262,0.0,1.0,56,0.00,,,0.00,Wunderground v.1.15,2013-03-29 03:35:00,
2013-03-28 23:40:00,43.9,29.2,30.31,WSW,246,1.0,1.0,56,0.00,,,0.00,Wunderground v.1.15,2013-03-29 03:40:00,
2013-03-28 23:50:00,43.9,28.3,30.31,West,265,1.0,2.0,54,0.00,,,0.00,Wunderground v.1.15,2013-03-29 03:50:00,
2013-03-28 23:55:00,43.8,28.2,30.31,West,279,1.0,2.0,54,0.00,,,0.00,Wunderground v.1.15,2013-03-29 03:55:00,